TimeCST,TemperatureF,Dew PointF,Humidity,Sea Level PressureIn,VisibilityMPH,Wind Direction,Wind SpeedMPH,Gust SpeedMPH,PrecipitationIn,Events,Conditions,WindDirDegrees,DateUTC
12:54 AM,19.9,14.0,78,30.18,9.0,North,4.6,-,N/A,,Overcast,360,2013-01-01 06:54:00
1:54 AM,19.9,14.0,78,30.18,9.0,North,6.9,-,N/A,,Overcast,10,2013-01-01 07:54:00
2:54 AM,19.9,14.0,78,30.21,10.0,North,6.9,-,N/A,,Overcast,360,2013-01-01 08:54:00
3:54 AM,19.9,12.0,71,30.19,10.0,North,6.9,-,N/A,,Overcast,10,2013-01-01 09:54:00
4:54 AM,19.0,10.9,71,30.22,10.0,North,5.8,-,N/A,,Overcast,360,2013-01-01 10:54:00
5:54 AM,17.1,10.0,74,30.22,10.0,North,6.9,-,N/A,,Mostly Cloudy,360,2013-01-01 11:54:00
6:54 AM,15.1,8.1,74,30.23,10.0,North,5.8,-,N/A,,Clear,360,2013-01-01 12:54:00
7:54 AM,12.9,7.0,77,30.20,10.0,North,9.2,-,N/A,,Clear,10,2013-01-01 13:54:00
8:54 AM,15.1,7.0,70,30.27,10.0,NNE,5.8,-,N/A,,Clear,20,2013-01-01 14:54:00
9:54 AM,17.1,8.1,68,30.32,10.0,WSW,3.5,-,N/A,,Clear,250,2013-01-01 15:54:00
10:54 AM,19.0,7.0,59,30.31,10.0,WNW,6.9,-,N/A,,Clear,300,2013-01-01 16:54:00
11:54 AM,21.0,7.0,55,30.26,10.0,North,10.4,-,N/A,,Clear,360,2013-01-01 17:54:00
12:54 PM,21.9,6.1,51,30.24,10.0,North,6.9,-,N/A,,Clear,360,2013-01-01 18:54:00
1:54 PM,21.9,6.1,51,30.23,10.0,North,4.6,-,N/A,,Clear,360,2013-01-01 19:54:00
2:54 PM,23.0,6.1,48,30.23,10.0,NNW,6.9,-,N/A,,Clear,340,2013-01-01 20:54:00
3:54 PM,19.9,6.1,55,30.25,10.0,NW,6.9,-,N/A,,Clear,320,2013-01-01 21:54:00
4:54 PM,17.1,5.0,59,30.26,10.0,NW,4.6,-,N/A,,Clear,320,2013-01-01 22:54:00
5:54 PM,16.0,6.1,65,30.27,10.0,Calm,Calm,-,N/A,,Clear,0,2013-01-01 23:54:00
6:54 PM,14.0,6.1,71,30.27,10.0,Calm,Calm,-,N/A,,Clear,0,2013-01-02 00:54:00
7:54 PM,12.0,6.1,77,30.28,10.0,Calm,Calm,-,N/A,,Clear,0,2013-01-02 01:54:00
8:54 PM,10.9,5.0,77,30.27,10.0,Calm,Calm,-,N/A,,Clear,0,2013-01-02 02:54:00
9:54 PM,9.0,5.0,84,30.27,10.0,Calm,Calm,-,N/A,,Clear,0,2013-01-02 03:54:00
10:54 PM,9.0,5.0,84,30.28,10.0,Calm,Calm,-,N/A,,Clear,0,2013-01-02 04:54:00
11:54 PM,8.1,3.9,83,30.26,10.0,Calm,Calm,-,N/A,,Clear,0,2013-01-02 05:54:00